When you browse on this site, cookies collect data to enhance your experience and personalize the content and advertising you see.
Visit our Privacy Policy to learn more. By continuing to use the site, you agree to this use of cookies and data.
  • In United Kingdom
  • List of Countries
  • For 7 days
  • Water Temperature
  • Weather Map
  • Weather Widgets
  • user-avatar
    Login

    Hourly Weather Abertridwr

    Today, 19 November, Tuesday

    Time Temperature Precipitation Wind Pressure Humidity
    00:00 +4°C° 0 mm 1 mps 750 mmHg 91%
    01:00 +5°C° 0 mm 1 mps 750 mmHg 91%
    02:00 +4°C° 0 mm 2 mps 750 mmHg 92%
    03:00 +4°C° 0 mm 2 mps 749 mmHg 92%
    04:00 +4°C° 0 mm 2 mps 749 mmHg 92%
    05:00 +3°C° 0 mm 2 mps 749 mmHg 93%
    06:00 +3°C° 0 mm 2 mps 749 mmHg 93%
    07:00 +3°C° 0 mm 2 mps 749 mmHg 93%
    08:00 +4°C° 0 mm 2 mps 749 mmHg 93%
    09:00 +4°C° 0 mm 2 mps 748 mmHg 93%
    10:00 +4°C° 0 mm 3 mps 748 mmHg 92%
    11:00 +5°C° 0 mm 3 mps 748 mmHg 90%
    12:00 +7°C° 0 mm 3 mps 748 mmHg 88%
    13:00 +6°C° 0 mm 4 mps 748 mmHg 88%
    14:00 +7°C° 0 mm 4 mps 747 mmHg 88%
    15:00 +7°C° 0 mm 5 mps 747 mmHg 88%
    16:00 +7°C° 0 mm 5 mps 747 mmHg 89%
    17:00 +6°C° 0 mm 5 mps 747 mmHg 91%
    18:00 +6°C° 0 mm 5 mps 747 mmHg 92%
    19:00 +6°C° 0 mm 5 mps 747 mmHg 92%
    20:00 +6°C° 0 mm 5 mps 747 mmHg 92%
    21:00 +5°C° 0 mm 6 mps 747 mmHg 93%
    22:00 +5°C° 0.1 mm 6 mps 746 mmHg 92%
    23:00 +5°C° 0.1 mm 6 mps 746 mmHg 92%

    Tomorrow, 20 November, Wednesday

    Time Temperature Precipitation Wind Pressure Humidity
    00:00 +5°C° 0.1 mm 6 mps 746 mmHg 92%
    01:00 +5°C° 0.1 mm 6 mps 746 mmHg 91%
    02:00 +5°C° 0.1 mm 6 mps 746 mmHg 91%
    03:00 +5°C° 0.1 mm 7 mps 745 mmHg 90%
    04:00 +5°C° 0 mm 7 mps 745 mmHg 90%
    05:00 +5°C° 0 mm 7 mps 745 mmHg 90%
    06:00 +5°C° 0 mm 7 mps 745 mmHg 91%
    07:00 +5°C° 0 mm 7 mps 745 mmHg 90%
    08:00 +5°C° 0 mm 7 mps 745 mmHg 90%
    09:00 +4°C° 0 mm 7 mps 745 mmHg 90%
    10:00 +4°C° 0 mm 8 mps 744 mmHg 87%
    11:00 +4°C° 0 mm 8 mps 744 mmHg 85%
    12:00 +3°C° 0 mm 9 mps 744 mmHg 82%
    13:00 +3°C° 0 mm 9 mps 743 mmHg 82%
    14:00 +3°C° 0 mm 9 mps 743 mmHg 81%
    15:00 +4°C° 0 mm 8 mps 743 mmHg 81%
    16:00 +4°C° 0 mm 8 mps 742 mmHg 83%
    17:00 +2°C° 0 mm 8 mps 742 mmHg 84%
    18:00 +3°C° 0 mm 7 mps 742 mmHg 86%
    19:00 +3°C° 0 mm 7 mps 742 mmHg 86%
    20:00 +2°C° 0 mm 7 mps 742 mmHg 87%
    21:00 +2°C° 0 mm 6 mps 742 mmHg 88%
    22:00 +2°C° 0 mm 6 mps 741 mmHg 88%
    23:00 +3°C° 0 mm 6 mps 741 mmHg 89%

    Day after tomorrow, 21 November, Thursday

    Time Temperature Precipitation Wind Pressure Humidity
    00:00 +3°C° 0 mm 6 mps 741 mmHg 89%
    01:00 +3°C° 0 mm 6 mps 740 mmHg 90%
    02:00 +3°C° 0 mm 6 mps 740 mmHg 90%
    03:00 +3°C° 0 mm 6 mps 739 mmHg 90%
    04:00 +3°C° 0 mm 7 mps 739 mmHg 90%
    05:00 +3°C° 0 mm 7 mps 738 mmHg 91%
    06:00 +3°C° 0 mm 7 mps 738 mmHg 91%
    07:00 +3°C° 0 mm 7 mps 738 mmHg 91%
    08:00 +4°C° 0 mm 7 mps 738 mmHg 91%
    09:00 +4°C° 0 mm 7 mps 738 mmHg 91%
    10:00 +4°C° 0.1 mm 7 mps 737 mmHg 91%
    11:00 +5°C° 0.1 mm 7 mps 737 mmHg 90%
    12:00 +5°C° 0.1 mm 7 mps 737 mmHg 90%
    13:00 +5°C° 0.7 mm 7 mps 736 mmHg 92%
    14:00 +5°C° 0.7 mm 7 mps 736 mmHg 93%
    15:00 +5°C° 0.7 mm 6 mps 735 mmHg 94%
    16:00 +6°C° 0.7 mm 5 mps 735 mmHg 94%
    17:00 +6°C° 0.7 mm 4 mps 735 mmHg 94%
    18:00 +7°C° 0.7 mm 3 mps 734 mmHg 95%
    19:00 +7°C° 0.9 mm 3 mps 734 mmHg 94%
    20:00 +7°C° 0.9 mm 3 mps 734 mmHg 94%
    21:00 +7°C° 0.9 mm 3 mps 734 mmHg 94%
    22:00 +5°C° 0.3 mm 3 mps 734 mmHg 94%
    23:00 +6°C° 0.3 mm 2 mps 733 mmHg 94%

    22 November, Friday

    Time Temperature Precipitation Wind Pressure Humidity
    00:00 +5°C° 0.3 mm 2 mps 733 mmHg 94%
    01:00 +5°C° 0 mm 2 mps 733 mmHg 95%
    02:00 +5°C° 0 mm 1 mps 733 mmHg 95%
    03:00 +5°C° 0 mm 1 mps 733 mmHg 95%
    04:00 +5°C° 0 mm 1 mps 733 mmHg 95%
    05:00 +4°C° 0 mm 2 mps 734 mmHg 95%
    06:00 +4°C° 0 mm 2 mps 734 mmHg 95%
    07:00 +4°C° 0.2 mm 3 mps 734 mmHg 95%
    08:00 +4°C° 0.2 mm 3 mps 735 mmHg 95%
    09:00 +5°C° 0.2 mm 3 mps 735 mmHg 95%
    10:00 +5°C° 0.3 mm 4 mps 736 mmHg 93%
    11:00 +6°C° 0.3 mm 4 mps 736 mmHg 91%
    12:00 +7°C° 0.3 mm 4 mps 736 mmHg 89%
    13:00 +7°C° 0.1 mm 4 mps 736 mmHg 88%
    14:00 +8°C° 0.1 mm 3 mps 736 mmHg 88%
    15:00 +8°C° 0.1 mm 2 mps 736 mmHg 88%
    16:00 +7°C° 0 mm 2 mps 736 mmHg 89%
    17:00 +6°C° 0 mm 2 mps 737 mmHg 90%
    18:00 +6°C° 0 mm 2 mps 737 mmHg 91%
    19:00 +5°C° 0.2 mm 3 mps 736 mmHg 92%
    20:00 +5°C° 0.2 mm 3 mps 736 mmHg 93%
    21:00 +5°C° 0.2 mm 4 mps 736 mmHg 94%
    22:00 +5°C° 1.3 mm 4 mps 736 mmHg 94%
    23:00 +5°C° 1.3 mm 4 mps 736 mmHg 95%

    23 November, Saturday

    Time Temperature Precipitation Wind Pressure Humidity
    00:00 +5°C° 1.3 mm 5 mps 736 mmHg 95%
    01:00 +5°C° 0.6 mm 5 mps 736 mmHg 96%
    02:00 +5°C° 0.6 mm 5 mps 735 mmHg 96%
    03:00 +6°C° 0.6 mm 5 mps 735 mmHg 96%
    04:00 +6°C° 1 mm 5 mps 735 mmHg 96%
    05:00 +6°C° 1 mm 5 mps 736 mmHg 96%
    06:00 +6°C° 1 mm 4 mps 736 mmHg 96%
    07:00 +6°C° 0.4 mm 4 mps 736 mmHg 96%
    08:00 +6°C° 0.4 mm 4 mps 737 mmHg 96%
    09:00 +7°C° 0.4 mm 3 mps 737 mmHg 95%
    10:00 +7°C° 0 mm 3 mps 738 mmHg 94%
    11:00 +8°C° 0 mm 3 mps 738 mmHg 92%
    12:00 +8°C° 0 mm 3 mps 739 mmHg 91%
    13:00 +8°C° 0 mm 3 mps 739 mmHg 90%
    14:00 +8°C° 0 mm 3 mps 739 mmHg 90%
    15:00 +8°C° 0 mm 2 mps 740 mmHg 90%
    16:00 +8°C° 0 mm 2 mps 740 mmHg 92%
    17:00 +7°C° 0 mm 2 mps 741 mmHg 93%
    18:00 +6°C° 0 mm 2 mps 741 mmHg 94%
    19:00 +7°C° 0 mm 1 mps 742 mmHg 93%
    20:00 +7°C° 0 mm 1 mps 742 mmHg 93%
    21:00 +7°C° 0 mm 1 mps 743 mmHg 92%
    22:00 +7°C° 0 mm 1 mps 743 mmHg 92%
    23:00 +6°C° 0 mm 1 mps 743 mmHg 92%

    24 November, Sunday

    Time Temperature Precipitation Wind Pressure Humidity
    00:00 +6°C° 0 mm 1 mps 743 mmHg 93%
    01:00 +6°C° 0 mm 1 mps 743 mmHg 93%
    02:00 +7°C° 0 mm 1 mps 743 mmHg 94%
    03:00 +6°C° 0 mm 2 mps 743 mmHg 95%
    04:00 +6°C° 0 mm 2 mps 743 mmHg 95%
    05:00 +5°C° 0 mm 3 mps 743 mmHg 95%
    06:00 +5°C° 0 mm 3 mps 743 mmHg 95%
    07:00 +6°C° 0.4 mm 5 mps 743 mmHg 94%
    08:00 +5°C° 0.4 mm 6 mps 742 mmHg 93%
    09:00 +5°C° 0.4 mm 7 mps 742 mmHg 92%
    10:00 +5°C° 1.5 mm 8 mps 741 mmHg 93%
    11:00 +6°C° 1.5 mm 9 mps 740 mmHg 93%
    12:00 +7°C° 1.5 mm 9 mps 740 mmHg 94%
    13:00 +8°C° 1.7 mm 9 mps 739 mmHg 95%
    14:00 +10°C° 1.7 mm 9 mps 739 mmHg 96%
    15:00 +11°C° 1.7 mm 8 mps 738 mmHg 97%
    16:00 +11°C° 2.1 mm 8 mps 738 mmHg 97%
    17:00 +11°C° 2.1 mm 8 mps 737 mmHg 97%
    18:00 +11°C° 2.1 mm 8 mps 737 mmHg 97%
    19:00 +11°C° 3 mm 8 mps 737 mmHg 96%
    20:00 +12°C° 3 mm 9 mps 737 mmHg 95%
    21:00 +12°C° 3 mm 10 mps 736 mmHg 95%
    22:00 +12°C° 2.3 mm 10 mps 736 mmHg 95%
    23:00 +12°C° 2.3 mm 10 mps 735 mmHg 95%
    Show more